| time (UTC) | temp F | wind direction | speed MPH | gust MPH | rain 1hr in | rain 24hr in | rain mn in | humidity % | barometer mb |
| 20260504050019 | 46 | 313 | 0.0 | 0.0 | 0.00 | 0.00 | 0.00 | 73 | 1007.8 |
| 20260504044519 | 47 | 313 | 0.0 | 0.0 | 0.00 | 0.00 | 0.00 | 71 | 1008.0 |
| 20260504043031 | 48 | 313 | 0.0 | 0.0 | 0.00 | 0.00 | 0.00 | 70 | 1008.2 |
| 20260504041537 | 48 | 313 | 0.0 | 0.0 | 0.00 | 0.00 | 0.00 | 70 | 1008.2 |
| 20260504040111 | 49 | 313 | 0.0 | 0.0 | 0.00 | 0.00 | 0.00 | 69 | 1008.3 |
| 20260504034601 | 49 | 313 | 0.0 | 0.0 | 0.00 | 0.00 | 0.00 | 68 | 1008.4 |
| 20260504033007 | 50 | 313 | 0.0 | 0.0 | 0.00 | 0.00 | 0.00 | 64 | 1008.5 |
| 20260504031516 | 51 | 313 | 0.0 | 0.0 | 0.00 | 0.00 | 0.00 | 63 | 1008.6 |
| 20260504030051 | 53 | 313 | 0.0 | 0.0 | 0.00 | 0.00 | 0.00 | 60 | 1008.6 |
| 20260504024532 | 55 | 313 | 0.0 | 0.0 | 0.00 | 0.00 | 0.00 | 54 | 1008.6 |
| 20260504023007 | 58 | 313 | 0.0 | 0.0 | 0.00 | 0.00 | 0.00 | 49 | 1008.6 |
| 20260504021545 | 60 | 313 | 0.0 | 2.0 | 0.00 | 0.00 | 0.00 | 45 | 1008.4 |
| 20260504020021 | 61 | 313 | 1.0 | 4.0 | 0.00 | 0.00 | 0.00 | 42 | 1008.3 |
| 20260504014551 | 63 | 313 | 2.0 | 4.0 | 0.00 | 0.00 | 0.00 | 39 | 1008.4 |
| 20260504013025 | 65 | 311 | 2.0 | 6.0 | 0.00 | 0.00 | 0.00 | 37 | 1008.3 |
| 20260504011503 | 67 | 289 | 3.0 | 8.0 | 0.00 | 0.00 | 0.00 | 34 | 1007.9 |
| 20260504010035 | 68 | 293 | 4.0 | 10.0 | 0.00 | 0.00 | 0.00 | 33 | 1007.7 |
| 20260504004507 | 69 | 268 | 5.0 | 11.0 | 0.00 | 0.00 | 0.00 | 31 | 1007.7 |
| 20260504003013 | 71 | 279 | 4.0 | 11.0 | 0.00 | 0.00 | 0.00 | 32 | 1007.7 |
| 20260504001519 | 71 | 281 | 6.0 | 12.0 | 0.00 | 0.00 | 0.00 | 29 | 1007.6 |
| 20260504000031 | 72 | 279 | 5.0 | 16.0 | 0.00 | 0.00 | 0.00 | 29 | 1007.5 |
| 20260503234559 | 72 | 305 | 9.0 | 14.0 | 0.00 | 0.00 | 0.00 | 27 | 1007.5 |
| 20260503233055 | 73 | 308 | 8.0 | 18.0 | 0.00 | 0.00 | 0.00 | 26 | 1007.5 |
| 20260503231515 | 73 | 256 | 11.0 | 19.0 | 0.00 | 0.00 | 0.00 | 24 | 1007.5 |
| 20260503230052 | 73 | 288 | 11.0 | 18.0 | 0.00 | 0.00 | 0.00 | 25 | 1007.6 |
| 20260503224524 | 74 | 306 | 9.0 | 22.0 | 0.00 | 0.00 | 0.00 | 27 | 1007.5 |
| 20260503223003 | 74 | 306 | 9.0 | 19.0 | 0.00 | 0.00 | 0.00 | 27 | 1007.3 |
| 20260503221535 | 74 | 323 | 11.0 | 18.0 | 0.00 | 0.00 | 0.00 | 28 | 1007.2 |
| 20260503220005 | 74 | 323 | 13.0 | 21.0 | 0.00 | 0.00 | 0.00 | 25 | 1007.3 |
| 20260503214532 | 74 | 297 | 11.0 | 18.0 | 0.00 | 0.00 | 0.00 | 26 | 1007.3 |
| 20260503213009 | 74 | 320 | 10.0 | 20.0 | 0.00 | 0.00 | 0.00 | 29 | 1007.3 |
| 20260503211538 | 74 | 336 | 14.0 | 20.0 | 0.00 | 0.00 | 0.00 | 28 | 1007.3 |
| 20260503210100 | 74 | 335 | 13.0 | 20.0 | 0.00 | 0.00 | 0.00 | 31 | 1007.3 |
| 20260503204513 | 74 | 281 | 12.0 | 19.0 | 0.00 | 0.00 | 0.00 | 30 | 1007.5 |
| 20260503203020 | 74 | 278 | 10.0 | 20.0 | 0.00 | 0.00 | 0.00 | 30 | 1007.5 |
| 20260503201531 | 74 | 292 | 11.0 | 20.0 | 0.00 | 0.00 | 0.00 | 31 | 1007.6 |
| 20260503200037 | 73 | 336 | 13.0 | 23.0 | 0.00 | 0.00 | 0.00 | 31 | 1007.6 |
| 20260503194557 | 73 | 316 | 10.0 | 20.0 | 0.00 | 0.00 | 0.00 | 33 | 1007.7 |
| 20260503193006 | 72 | 310 | 11.0 | 23.0 | 0.00 | 0.00 | 0.00 | 33 | 1007.9 |
| 20260503191547 | 72 | 300 | 12.0 | 23.0 | 0.00 | 0.00 | 0.00 | 32 | 1007.9 |
| 20260503190018 | 71 | 254 | 10.0 | 18.0 | 0.00 | 0.00 | 0.00 | 37 | 1008.0 |
| 20260503184548 | 71 | 294 | 11.0 | 23.0 | 0.00 | 0.00 | 0.00 | 38 | 1008.1 |
| 20260503183018 | 70 | 247 | 9.0 | 19.0 | 0.00 | 0.00 | 0.00 | 40 | 1008.2 |
| 20260503181539 | 69 | 302 | 8.0 | 15.0 | 0.00 | 0.00 | 0.00 | 41 | 1008.4 |
| 20260503180059 | 69 | 232 | 7.0 | 18.0 | 0.00 | 0.00 | 0.00 | 42 | 1008.5 |
| 20260503174520 | 69 | 246 | 11.0 | 21.0 | 0.00 | 0.00 | 0.00 | 42 | 1008.7 |
| 20260503173041 | 68 | 267 | 15.0 | 23.0 | 0.00 | 0.00 | 0.00 | 41 | 1008.9 |
| 20260503171600 | 67 | 230 | 14.0 | 24.0 | 0.00 | 0.00 | 0.00 | 42 | 1009.0 |
| 20260503140109 | 55 | 212 | 15.0 | 22.0 | 0.00 | 0.00 | 0.00 | 55 | 1011.2 |
| 20260503081505 | 52 | 203 | 5.0 | 15.0 | 0.00 | 0.00 | 0.00 | 58 | 1015.7 |
| 20260503071610 | 51 | 206 | 11.0 | 16.0 | 0.00 | 0.00 | 0.00 | 55 | 1015.7 |
| 20260503054531 | 49 | 196 | 7.0 | 10.0 | 0.00 | 0.00 | 0.00 | 56 | 1016.4 |
| 20260503053034 | 50 | 200 | 8.0 | 12.0 | 0.00 | 0.00 | 0.00 | 54 | 1016.5 |
| 20260503051543 | 50 | 195 | 7.0 | 12.0 | 0.00 | 0.00 | 0.00 | 54 | 1016.6 |